When you browse on this site, cookies collect data to enhance your experience and personalize the content and advertising you see.
Visit our Privacy Policy to learn more. By continuing to use the site, you agree to this use of cookies and data.
  • In Netherlands
  • List of Countries
  • For 7 days
  • Water Temperature
  • Satellite Maps
  • Weather Map
  • Weather Widgets
  • user-avatar
    Login

    Hourly Weather Lezhe

    Today, 16 December, Sunday

    Time Temperature Precipitation Wind Pressure Humidity
    00:00 +8°C° 0.9 mm 2 mps 735 mmHg 94%
    01:00 +7°C° 0.9 mm 2 mps 735 mmHg 94%
    02:00 +7°C° 0.2 mm 2 mps 735 mmHg 93%
    03:00 +7°C° 0.2 mm 2 mps 735 mmHg 93%
    04:00 +7°C° 0.2 mm 3 mps 735 mmHg 92%
    05:00 +6°C° 0.1 mm 2 mps 736 mmHg 91%
    06:00 +6°C° 0.1 mm 2 mps 736 mmHg 90%
    07:00 +6°C° 0.1 mm 2 mps 736 mmHg 90%
    08:00 +6°C° 0.1 mm 2 mps 737 mmHg 86%
    09:00 +6°C° 0.1 mm 2 mps 738 mmHg 82%
    10:00 +7°C° 0.1 mm 2 mps 738 mmHg 78%
    11:00 +7°C° 0 mm 2 mps 738 mmHg 75%
    12:00 +7°C° 0 mm 2 mps 738 mmHg 72%
    13:00 +7°C° 0 mm 2 mps 738 mmHg 70%
    14:00 +7°C° 0 mm 2 mps 738 mmHg 72%
    15:00 +6°C° 0 mm 2 mps 739 mmHg 75%
    16:00 +6°C° 0 mm 1 mps 739 mmHg 77%
    17:00 +6°C° 0 mm 1 mps 739 mmHg 78%
    18:00 +5°C° 0 mm 1 mps 739 mmHg 78%
    19:00 +5°C° 0 mm 1 mps 740 mmHg 78%
    20:00 +4°C° 0 mm 1 mps 740 mmHg 75%
    21:00 +4°C° 0 mm 1 mps 740 mmHg 73%
    22:00 +4°C° 0 mm 1 mps 740 mmHg 70%
    23:00 +4°C° 0 mm 1 mps 740 mmHg 67%

    Tomorrow, 17 December, Monday

    Time Temperature Precipitation Wind Pressure Humidity
    00:00 +4°C° 0 mm 1 mps 740 mmHg 65%
    01:00 +3°C° 0 mm 2 mps 740 mmHg 62%
    02:00 +4°C° 0 mm 2 mps 739 mmHg 61%
    03:00 +4°C° 0 mm 2 mps 739 mmHg 59%
    04:00 +4°C° 0 mm 2 mps 738 mmHg 58%
    05:00 +4°C° 0 mm 2 mps 738 mmHg 57%
    06:00 +5°C° 0 mm 2 mps 738 mmHg 57%
    07:00 +5°C° 0 mm 2 mps 738 mmHg 56%
    08:00 +6°C° 0.4 mm 2 mps 738 mmHg 59%
    09:00 +6°C° 0.4 mm 2 mps 737 mmHg 62%
    10:00 +7°C° 0.4 mm 2 mps 737 mmHg 65%
    11:00 +5°C° 0.6 mm 3 mps 737 mmHg 70%
    12:00 +5°C° 0.6 mm 3 mps 736 mmHg 76%
    13:00 +5°C° 0.6 mm 3 mps 736 mmHg 81%
    14:00 +5°C° 0.5 mm 3 mps 736 mmHg 82%
    15:00 +5°C° 0.5 mm 4 mps 735 mmHg 84%
    16:00 +5°C° 0.5 mm 4 mps 735 mmHg 86%
    17:00 +4°C° 2.7 mm 4 mps 735 mmHg 87%
    18:00 +3°C° 2.7 mm 5 mps 735 mmHg 88%
    19:00 +3°C° 2.7 mm 5 mps 735 mmHg 89%
    20:00 +2°C° 2.9 mm 5 mps 735 mmHg 89%
    21:00 +2°C° 2.9 mm 5 mps 736 mmHg 89%
    22:00 +1°C° 2.9 mm 5 mps 736 mmHg 89%
    23:00 +1°C° 1.3 mm 6 mps 736 mmHg 88%

    Day after tomorrow, 18 December, Tuesday

    Time Temperature Precipitation Wind Pressure Humidity
    00:00 +1°C° 1.4 mm 6 mps 737 mmHg 86%
    01:00 +1°C° 1.4 mm 6 mps 737 mmHg 85%
    02:00 +1°C° 0.2 mm 6 mps 737 mmHg 84%
    03:00 -1°C° 0.2 mm 6 mps 737 mmHg 83%
    04:00 -1°C° 0.2 mm 6 mps 737 mmHg 83%
    05:00 -1°C° 0.2 mm 6 mps 738 mmHg 82%
    06:00 -1°C° 0.2 mm 6 mps 738 mmHg 82%
    07:00 -1°C° 0.2 mm 6 mps 739 mmHg 81%
    08:00 +1°C° 0 mm 6 mps 739 mmHg 81%
    09:00 +1°C° 0 mm 6 mps 740 mmHg 81%
    10:00 +2°C° 0 mm 6 mps 740 mmHg 81%
    11:00 +3°C° 0 mm 6 mps 740 mmHg 81%
    12:00 +3°C° 0 mm 5 mps 740 mmHg 82%
    13:00 +3°C° 0 mm 5 mps 740 mmHg 82%
    14:00 +3°C° 0 mm 5 mps 740 mmHg 82%
    15:00 +2°C° 0 mm 5 mps 741 mmHg 82%
    16:00 +3°C° 0 mm 4 mps 741 mmHg 82%
    17:00 +1°C° 0 mm 4 mps 741 mmHg 82%
    18:00 +1°C° 0 mm 4 mps 742 mmHg 82%
    19:00 0°C° 0 mm 4 mps 742 mmHg 82%
    20:00 0°C° 0 mm 4 mps 742 mmHg 83%
    21:00 0°C° 0 mm 4 mps 742 mmHg 83%
    22:00 0°C° 0 mm 4 mps 743 mmHg 83%
    23:00 -1°C° 0 mm 4 mps 743 mmHg 83%

    19 December, Wednesday

    Time Temperature Precipitation Wind Pressure Humidity
    00:00 0°C° 0 mm 3 mps 743 mmHg 83%
    01:00 0°C° 0 mm 3 mps 743 mmHg 83%
    02:00 0°C° 0 mm 3 mps 742 mmHg 83%
    03:00 0°C° 0 mm 3 mps 742 mmHg 82%
    04:00 0°C° 0 mm 3 mps 742 mmHg 82%
    05:00 0°C° 0 mm 3 mps 743 mmHg 82%
    06:00 0°C° 0 mm 3 mps 743 mmHg 81%
    07:00 +1°C° 0 mm 2 mps 743 mmHg 81%
    08:00 +2°C° 0 mm 2 mps 743 mmHg 81%
    09:00 +4°C° 0 mm 2 mps 743 mmHg 82%
    10:00 +5°C° 0 mm 2 mps 743 mmHg 82%
    11:00 +6°C° 0 mm 2 mps 743 mmHg 82%
    12:00 +6°C° 0 mm 2 mps 743 mmHg 81%
    13:00 +7°C° 0 mm 2 mps 742 mmHg 80%
    14:00 +6°C° 0 mm 2 mps 743 mmHg 80%
    15:00 +5°C° 0 mm 2 mps 743 mmHg 80%
    16:00 +4°C° 0 mm 2 mps 743 mmHg 80%
    17:00 +3°C° 0 mm 2 mps 743 mmHg 78%
    18:00 +2°C° 0 mm 2 mps 744 mmHg 76%
    19:00 0°C° 0 mm 3 mps 744 mmHg 74%
    20:00 0°C° 0 mm 3 mps 744 mmHg 73%
    21:00 0°C° 0 mm 3 mps 744 mmHg 72%
    22:00 0°C° 0 mm 3 mps 745 mmHg 71%
    23:00 0°C° 0 mm 3 mps 745 mmHg 70%

    20 December, Thursday

    Time Temperature Precipitation Wind Pressure Humidity
    00:00 0°C° 0 mm 3 mps 744 mmHg 70%
    01:00 0°C° 0 mm 3 mps 744 mmHg 69%
    02:00 0°C° 0 mm 3 mps 744 mmHg 69%
    03:00 +1°C° 0 mm 2 mps 744 mmHg 68%
    04:00 +1°C° 0 mm 2 mps 744 mmHg 67%
    05:00 +2°C° 0 mm 2 mps 744 mmHg 67%
    06:00 +1°C° 0 mm 3 mps 744 mmHg 66%
    07:00 +1°C° 0 mm 3 mps 744 mmHg 65%
    08:00 +3°C° 0 mm 2 mps 744 mmHg 68%
    09:00 +5°C° 0 mm 2 mps 744 mmHg 71%
    10:00 +7°C° 0 mm 2 mps 745 mmHg 74%
    11:00 +7°C° 0 mm 2 mps 744 mmHg 74%
    12:00 +8°C° 0 mm 2 mps 744 mmHg 73%
    13:00 +8°C° 0 mm 2 mps 743 mmHg 72%
    14:00 +7°C° 0 mm 2 mps 743 mmHg 71%
    15:00 +7°C° 0 mm 3 mps 743 mmHg 69%
    16:00 +5°C° 0 mm 3 mps 743 mmHg 68%
    17:00 +4°C° 0 mm 3 mps 743 mmHg 68%
    18:00 +4°C° 0 mm 3 mps 743 mmHg 68%
    19:00 +3°C° 0 mm 3 mps 743 mmHg 68%
    20:00 +3°C° 0 mm 3 mps 743 mmHg 69%
    21:00 +3°C° 0 mm 3 mps 743 mmHg 69%
    22:00 +3°C° 0 mm 4 mps 743 mmHg 69%
    23:00 +4°C° 0.7 mm 4 mps 743 mmHg 72%

    21 December, Friday

    Time Temperature Precipitation Wind Pressure Humidity
    00:00 +4°C° 0.7 mm 4 mps 743 mmHg 74%
    01:00 +4°C° 0.7 mm 4 mps 742 mmHg 77%
    02:00 +4°C° 2 mm 3 mps 742 mmHg 80%
    03:00 +4°C° 2 mm 3 mps 742 mmHg 83%
    04:00 +4°C° 2 mm 3 mps 742 mmHg 87%
    05:00 +4°C° 0.7 mm 3 mps 742 mmHg 87%
    06:00 +4°C° 0.7 mm 3 mps 742 mmHg 87%
    07:00 +5°C° 0.7 mm 3 mps 742 mmHg 87%
    08:00 +5°C° 0.4 mm 3 mps 742 mmHg 87%
    09:00 +5°C° 0.4 mm 3 mps 743 mmHg 86%
    10:00 +7°C° 0.4 mm 3 mps 743 mmHg 86%
    11:00 +7°C° 0.2 mm 3 mps 742 mmHg 86%
    12:00 +8°C° 0.2 mm 3 mps 742 mmHg 85%
    13:00 +8°C° 0.2 mm 2 mps 742 mmHg 84%
    14:00 +8°C° 0.1 mm 2 mps 742 mmHg 85%
    15:00 +7°C° 0.1 mm 3 mps 742 mmHg 87%
    16:00 +5°C° 0.1 mm 3 mps 742 mmHg 88%
    17:00 +5°C° 0 mm 3 mps 742 mmHg 87%
    18:00 +4°C° 0 mm 3 mps 743 mmHg 86%
    19:00 +4°C° 0 mm 3 mps 743 mmHg 85%
    20:00 +3°C° 0 mm 3 mps 743 mmHg 85%
    21:00 +3°C° 0 mm 3 mps 743 mmHg 85%
    22:00 +3°C° 0 mm 3 mps 743 mmHg 84%
    23:00 +3°C° 0 mm 3 mps 743 mmHg 85%
    Show more